Change the Weather History Date:

Sunday, May 12, 2013

  Actual Average Record
Temperature  
Mean Temperature 40 °F 56 °F  
Max Temperature 48 °F 67 °F 84 °F (2004)
Min Temperature 32 °F 45 °F 32 °F (2013)
Degree Days  
Heating Degree Days 25    
Month to date heating degree days 66  
Since 1 July heating degree days 6388  
Cooling Degree Days 0    
Month to date cooling degree days 17  
Year to date cooling degree days 18  
Moisture  
Dew Point 28 °F    
Average Humidity 64    
Maximum Humidity 79    
Minimum Humidity 48    
Precipitation  
Precipitation T in 0.11 in 0.81 in (2014)
Month to date precipitation 0.32 1.30  
Year to date precipitation 13.50 9.57  
Snow  
Snow T in - - ()
Month to date snowfall T  
Since 1 July snowfall 43.5  
Snow Depth 0.00 in    
Sea Level Pressure  
Sea Level Pressure 29.94 in    
Wind  
Wind Speed 16 mph (WNW)    
Max Wind Speed 29 mph    
Max Gust Speed 38 mph    
Visibility 10 miles    
Events Rain    
T = Trace of Precipitation, MM = Missing Value Source: NWS Daily Summary

Daily Weather History Graph

Daily Weather History Graph

Search for Another Location

Airport or City:

Trip Planner

Search our weather history database for the weather conditions in past years. The results will help you decide how hot, cold, wet, or windy it might be!

Date:

Astronomy

May. 12, 2013 Rise Set
Actual Time 6:14 AM EDT 8:51 PM EDT
Civil Twilight 5:41 AM EDT 9:24 PM EDT
Nautical Twilight 5:00 AM EDT 10:05 PM EDT
Astronomical Twilight 4:14 AM EDT 10:52 PM EDT
Moon 8:07 AM EDT (5/12) 11:18 PM EDT (5/12)
Length of Visible Light 15h 42m
Length of Day
14h 36m
Waxing Crescent, 6% of the Moon is Illuminated
May 12
Waxing Crescent
May 18
First Quarter
May 25
Full
May 31
Last Quarter
Jun 8
New

Hourly Weather History & Observations

Time (EDT) Temp. Windchill Dew Point Humidity Pressure Visibility Wind Dir Wind Speed Gust Speed Precip Events Conditions
12:53 AM 39.0 °F 32.8 °F 33.1 °F 79% 29.85 in 10.0 mi WSW 9.2 mph - N/A   Clear
1:53 AM 39.0 °F 30.6 °F 32.0 °F 76% 29.85 in 10.0 mi WSW 15.0 mph - N/A   Clear
2:53 AM 37.9 °F 29.6 °F 30.9 °F 76% 29.84 in 10.0 mi West 13.8 mph - N/A   Partly Cloudy
3:53 AM 37.9 °F 29.6 °F 28.0 °F 68% 29.84 in 10.0 mi West 13.8 mph 21.9 mph N/A   Clear
4:53 AM 37.0 °F 27.4 °F 30.0 °F 76% 29.84 in 10.0 mi West 17.3 mph - N/A   Clear
5:53 AM 36.0 °F 26.7 °F 28.9 °F 76% 29.85 in 10.0 mi West 15.0 mph - N/A   Partly Cloudy
6:42 AM 37.4 °F 28.5 °F 28.4 °F 70% 29.84 in 10.0 mi West 15.0 mph - N/A   Mostly Cloudy
6:53 AM 37.0 °F 28.1 °F 30.0 °F 76% 29.86 in 10.0 mi West 15.0 mph - N/A   Scattered Clouds
7:24 AM 37.4 °F 27.5 °F 30.2 °F 75% 29.85 in 10.0 mi West 18.4 mph 25.3 mph N/A   Mostly Cloudy
7:53 AM 37.9 °F 27.9 °F 30.0 °F 73% 29.88 in 10.0 mi West 19.6 mph 29.9 mph N/A   Overcast
8:53 AM 41.0 °F 32.8 °F 30.0 °F 65% 29.89 in 10.0 mi WNW 16.1 mph 26.5 mph N/A   Overcast
9:21 AM 42.8 °F 35.4 °F 30.2 °F 61% 29.88 in 10.0 mi WNW 15.0 mph 27.6 mph N/A   Mostly Cloudy
9:53 AM 43.0 °F 34.8 °F 28.9 °F 58% 29.91 in 10.0 mi NW 18.4 mph 26.5 mph N/A   Mostly Cloudy
10:53 AM 44.1 °F 36.2 °F 30.0 °F 58% 29.92 in 10.0 mi West 18.4 mph 28.8 mph 0.00 in   Mostly Cloudy
11:53 AM 46.0 °F 39.0 °F 30.9 °F 56% 29.93 in 10.0 mi WNW 17.3 mph 31.1 mph 0.00 in Rain Light Rain
12:53 PM 45.0 °F 36.9 °F 27.0 °F 49% 29.94 in 10.0 mi WNW 20.7 mph 34.5 mph 0.00 in   Mostly Cloudy
1:53 PM 46.0 °F 37.4 °F 28.9 °F 51% 29.96 in 10.0 mi NW 25.3 mph 36.8 mph N/A   Overcast
2:53 PM 42.1 °F 33.9 °F 26.1 °F 53% 30.00 in 10.0 mi WNW 17.3 mph 29.9 mph N/A   Overcast
3:53 PM 41.0 °F 31.4 °F 24.1 °F 51% 30.01 in 10.0 mi WNW 21.9 mph 36.8 mph N/A   Overcast
4:53 PM 42.1 °F 33.1 °F 25.0 °F 51% 30.02 in 10.0 mi West 20.7 mph 26.5 mph N/A   Overcast
5:53 PM 41.0 °F 31.6 °F 24.1 °F 51% 30.04 in 10.0 mi WNW 20.7 mph 31.1 mph N/A   Overcast
6:53 PM 39.9 °F 30.5 °F 23.0 °F 51% 30.05 in 10.0 mi WNW 19.6 mph 26.5 mph N/A   Overcast
7:53 PM 39.9 °F 30.2 °F 21.9 °F 49% 30.07 in 10.0 mi WNW 20.7 mph 31.1 mph N/A   Overcast
8:53 PM 37.9 °F 30.0 °F 23.0 °F 55% 30.08 in 10.0 mi NNW 12.7 mph - N/A   Scattered Clouds
9:53 PM 36.0 °F 31.1 °F 24.1 °F 62% 30.09 in 10.0 mi WNW 5.8 mph - N/A   Clear
10:53 PM 35.1 °F 29.3 °F 24.1 °F 64% 30.11 in 10.0 mi WNW 6.9 mph - N/A   Clear
11:53 PM 34.0 °F 26.6 °F 24.1 °F 67% 30.11 in 10.0 mi WNW 9.2 mph - N/A   Clear